Regional Weather Roundup
Issued by NWS Jackson, KY

Home | Current Version | Previous Version | Graphics & Text | Print | Product List | Glossary On
Versions: 1 2 3 4 5 6 7 8 9 10 11 12 13 14 15 16 17 18 19 20 21 22 23 24 25 26 27 28 29 30 31 32 33 34 35 36 37 38 39 40 41 42 43 44 45 46 47 48 49 50
000
ASUS43 KJKL 271010
RWRJKL

EAST KENTUCKY HOURLY WEATHER ROUNDUP
NATIONAL WEATHER SERVICE JACKSON KY
600 AM EDT TUE JUN 27 2017

NOTE: "FAIR" INDICATES FEW OR NO CLOUDS BELOW 12,000 FEET WITH
NO SIGNIFICANT WEATHER AND/OR OBSTRUCTIONS TO VISIBILITY.

* THESE REPORTS ARE NOT UNDER NWS QUALITY CONTROL AND MAY NOT
  REPORT WEATHER SUCH AS PRECIPITATION AND FOG.

KYZ079-080-083-085-087-088-110-112-115-119-120-271100
...EASTERN KENTUCKY...

CITY           SKY/WX    TMP DP  RH WIND       PRES   REMARKS
JACKSON        CLEAR     57  52  83 CALM      30.12R
LONDON         CLOUDY    56  53  90 CALM      30.13R
SOMERSET*      MOCLDY    54  54 100 CALM      30.15R
MONTICELLO*    PTCLDY    53  53 100 CALM      30.14R
WILLIAMSBURG*  CLOUDY    54  54 100 CALM      30.14R VSB 1/2
MIDDLESBORO*   MOCLDY    54  54 100 CALM      30.14R
HARLAN APT*    CLOUDY    54  52  94 CALM      30.14R VSB 1/2
PIKE CO APT*     N/A     56  55  99 CALM      30.13R
BIG SANDY APT* CLOUDY    59  53  83 CALM      30.12R
MOREHEAD APT*  RAIN      57  52  82 N5        30.14R VSB<1/4
ASHLAND*       PTCLDY    61  54  77 CALM      30.08R
$$

KYZ035-036-041-042-044-050-067-078-099-271100
...CENTRAL KENTUCKY...

CITY           SKY/WX    TMP DP  RH WIND       PRES   REMARKS
MT STERLING*   MOCLDY    55  54  94 CALM      30.14F
FLEMING/MASON* PTCLDY    54  51  90 W6        30.13S
DANVILLE*      CLEAR     54  50  87 CALM      30.15R
LEXINGTON      CLOUDY    57  53  86 N5        30.13R
FRANKFORT      PTCLDY    57  53  86 CALM      30.12R
LOUISVILLE     PTCLDY    61  56  83 E3        30.13R
LEBANON*         N/A    N/A N/A N/A MISG        N/A
GLASGOW*       PTCLDY    57  57 100 CALM      30.13R
BOWLING GREEN  PTCLDY    59  57  93 NE3       30.12R
$$

KYZ091>093-OHZ055-061-077-WVZ005-015-034-035-042-271100
...SOUTHERN OHIO/WEST VIRGINIA...

CITY           SKY/WX    TMP DP  RH WIND       PRES   REMARKS
COVINGTON      CLEAR     52  49  89 SW5       30.12R
COLUMBUS       PTCLDY    53  51  93 W6        30.07R
DAYTON         CLEAR     52  49  89 W7        30.10R
WILMINGTON     CLEAR     53  50  89 W6        30.10R
HUNTINGTON     PTCLDY    57  54  89 SW5       30.09R
CHARLESTON     CLOUDY    59  52  77 CALM      30.09S
PINEVILLE*     PTCLDY    49  49  97 MISG      30.18R
BECKLEY        PTCLDY    51  47  86 CALM      30.14R
BLUEFIELD      CLEAR     53  47  79 W7        30.14R
LOGAN CO APT*    N/A     55  54  94 CALM      30.12R
$$

VAZ002-007-008-TNZ017-027-036-066-071-271100
...SOUTHWEST VIRGINIA/EAST TENNESSEE...

CITY           SKY/WX    TMP DP  RH WIND       PRES   REMARKS
WISE*          PTCLDY    57  45  62 CALM      30.16S
JONESVILLE*      N/A     52  52 100 CALM      30.15R
ABINGDON*      CLOUDY    58  55  91 CALM      30.13R
BRISTOL        MOCLDY    57  56  96 CALM      30.12R
MORRISTOWN*    CLOUDY    59  55  88 CALM      30.11R
SEVIERVILLE*   SUNNY     55  54  94 CALM      30.11R
KNOXVILLE      MOCLDY    60  57  89 CALM      30.10R
LAFOLLETTE*      N/A     55  55 100 CALM      30.15S
OAK RIDGE      CLEAR     57  55  93 CALM      30.12R
CROSSVILLE     PTCLDY    55  52  89 CALM      30.14R
NASHVILLE      CLOUDY    64  58  80 CALM      30.11S
$$

...KEY TO REMARKS...
VSB - VISIBILITY IN MILES
WCI - WIND CHILL INDEX
HX  - HEAT INDEX

$$



USA.gov is the U.S. government's official web portal to all federal, state and local government web resources and services.